Abisinia, Peru

2:59 AM -05 on January 16, 2018 (GMT -0500)
Abisinia

Weather History for 84691 - April, 2014

Change the Weather History Date:

Wednesday, April 9, 2014

  Actual Average Record
Temperature  
Mean Temperature 70 °F -  
Max Temperature 78 °F 77 °F - ()
Min Temperature 63 °F 62 °F - ()
Cooling Degree Days 6    
Growing Degree Days 20 (Base 50)    
Moisture  
Dew Point 63 °F    
Average Humidity 78    
Maximum Humidity 88    
Minimum Humidity 61    
Precipitation  
Precipitation 0.00 in 0.00 in - ()
Sea Level Pressure  
Sea Level Pressure 29.91 in    
Wind  
Wind Speed 7 mph ()    
Max Wind Speed 17 mph    
Max Gust Speed -    
Visibility 4.8 miles    
Events      
T = Trace of Precipitation, MM = Missing Value Source: Averaged Metar Reports

Daily Weather History Graph

Daily Weather History Graph

Search for Another Location

Airport or City:

Trip Planner

Search our weather history database for the weather conditions in past years. The results will help you decide how hot, cold, wet, or windy it might be!

Date:

Astronomy

Apr. 09, 2014 Rise Set
Actual Time 6:10 AM -05 6:02 PM -05
Civil Twilight 5:49 AM -05 6:23 PM -05
Nautical Twilight 5:24 AM -05 6:48 PM -05
Astronomical Twilight 4:59 AM -05 7:13 PM -05
Moon 2:14 PM -05 (4/9) 1:27 AM -05 (4/9)
Length of Visible Light 12h 34m
Length of Day
11h 51m
Waxing Gibbous, 72% of the Moon is Illuminated
Apr 9
Waxing Gibbous
Apr 15
Full
Apr 22
Last Quarter
Apr 29
New
May 6
First Quarter

Hourly Weather History & Observations

Time (-05) Temp. Dew Point Humidity Pressure Visibility Wind Dir Wind Speed Gust Speed Precip Events Conditions
12:00 AM 66.2 °F 60.8 °F 83% 29.95 in 5.0 mi SSW 8.1 mph - N/A   Partly Cloudy
1:00 AM 66 °F 61 °F 80% 29.92 in 5 mi SSW 6.9 mph - -   Mist
1:00 AM 66.2 °F 60.8 °F 83% 29.92 in 5.0 mi SSW 6.9 mph - N/A   Partly Cloudy
2:00 AM 66.2 °F 60.8 °F 83% 29.92 in 5.0 mi SSW 8.1 mph - N/A   Partly Cloudy
3:00 AM 66.2 °F 60.8 °F 83% 29.92 in 5.0 mi SSW 9.2 mph - N/A   Partly Cloudy
4:00 AM 65 °F 62 °F 86% 29.89 in 5 mi SSW 5.8 mph - -   Mist
4:00 AM 66.2 °F 62.6 °F 88% 29.89 in 5.0 mi SSW 5.8 mph - N/A   Partly Cloudy
5:00 AM 66.2 °F 62.6 °F 88% 29.89 in 5.0 mi SSW 6.9 mph - N/A   Partly Cloudy
6:00 AM 66.2 °F 62.6 °F 88% 29.89 in 3.7 mi SSW 5.8 mph - N/A   Scattered Clouds
7:00 AM 65 °F 62 °F 86% 29.91 in 3 mi SSW 4.6 mph - -   Mist
7:00 AM 66.2 °F 62.6 °F 88% 29.92 in 2.8 mi SSW 4.6 mph - N/A   Scattered Clouds
8:00 AM 68.0 °F 62.6 °F 83% 29.95 in 3.7 mi SW 4.6 mph - N/A   Mostly Cloudy
9:00 AM 68.0 °F 62.6 °F 83% 29.95 in 5.0 mi West 5.8 mph - N/A   Mostly Cloudy
10:00 AM 69 °F 62 °F 74% 29.96 in 5 mi WNW 5.8 mph - -   Haze
10:00 AM 69.8 °F 62.6 °F 78% 29.98 in 5.0 mi WNW 5.8 mph - N/A   Scattered Clouds
11:00 AM 71.6 °F 62.6 °F 73% 29.95 in 5.0 mi West 6.9 mph - N/A   Partly Cloudy
12:00 PM 75.2 °F 64.4 °F 69% 29.92 in 5.6 mi West 8.1 mph - N/A   Unknown
1:00 PM 74 °F 63 °F 61% 29.90 in 6 mi West 8.1 mph - -   Partly Cloudy
1:00 PM 75.2 °F 62.6 °F 65% 29.92 in - West 8.1 mph - N/A   Clear
2:00 PM 73.4 °F 68.0 °F 83% 29.89 in - WNW 6.9 mph - N/A   Partly Cloudy
3:00 PM 75.2 °F 66.2 °F 73% 29.86 in 5.0 mi WNW 6.9 mph - N/A   Partly Cloudy
4:00 PM 77 °F 67 °F 63% 29.85 in 5 mi WSW 11.5 mph - -   Haze
4:00 PM 77.0 °F 66.2 °F 69% 29.86 in 5.0 mi WSW 11.5 mph - N/A   Scattered Clouds
5:00 PM 73.4 °F 66.2 °F 78% 29.86 in 5.0 mi SW 15.0 mph - N/A   Scattered Clouds
6:00 PM 69.8 °F 62.6 °F 78% 29.89 in 5.0 mi SSW 17.3 mph - N/A   Scattered Clouds
7:00 PM 69 °F 62 °F 71% 29.89 in 5 mi SW 15.0 mph - -   Haze
7:00 PM 68.0 °F 62.6 °F 83% 29.89 in 5.0 mi SW 15.0 mph - N/A   Scattered Clouds
8:00 PM 68.0 °F 62.6 °F 83% 29.92 in 5.0 mi SSW 15.0 mph - N/A   Scattered Clouds
9:00 PM 68.0 °F 60.8 °F 78% 29.92 in 5.0 mi SSW 12.7 mph - N/A   Partly Cloudy
10:00 PM 67 °F 60 °F 70% 29.93 in 5 mi SSW 11.5 mph - -   Haze
10:00 PM 68.0 °F 59.0 °F 73% 29.95 in 5.0 mi SSW 11.5 mph - N/A   Partly Cloudy
11:00 PM 66.2 °F 60.8 °F 83% 29.95 in 5.0 mi SSW 10.4 mph - N/A   Scattered Clouds